Theta_e
327 329 331 325 320 316 320 319 321 329 328 327 329 329 330 326 333 334 324 324 328 331 333 333 337 336 335 334 333 333 333 331 332 333 334 333 333 334 335 335 334 333 333 332 331 330 328 326 319
328 330 329 326 321 318 316 316 320 324 326 325 323 323 321 323 322 322 322 323 329 333 333 333 333 333 334 333 333 332 332 332 333 334 333 332 331 333 334 334 333 332 333 333 333 333 333 331 329
329 331 327 324 320 320 316 316 318 323 325 325 322 322 321 319 320 322 323 324 327 331 333 333 332 332 332 331 331 331 330 330 329 329 330 329 327 325 328 331 330 328 326 328 331 332 331 332 332
329 327 323 325 328 323 317 317 323 323 324 324 323 319 318 318 319 322 323 323 326 327 332 333 332 331 331 328 328 326 324 325 324 323 324 324 323 320 320 324 325 322 318 320 322 323 322 327 329
325 323 325 327 326 325 321 323 324 323 324 325 322 319 315 317 320 323 325 322 324 329 330 330 329 327 322 317 317 317 319 319 319 318 317 316 314 313 315 315 314 312 311 312 314 314 313 316 319
320 322 325 328 328 326 325 327 325 324 325 325 320 315 317 315 316 322 324 325 326 328 328 325 322 317 317 315 313 312 312 313 313 312 310 308 306 306 306 305 304 304 304 304 304 304 304 305 307
319 319 324 326 329 326 324 326 324 324 324 323 321 315 315 316 314 317 320 323 324 323 323 321 317 315 310 305 304 304 306 306 305 304 303 303 303 303 303 303 303 303 302 303 302 303 302 302 302
316 318 322 322 329 328 325 322 324 325 323 324 323 317 316 319 314 314 315 316 319 320 317 316 311 306 304 304 303 303 303 303 303 303 302 303 303 302 303 302 303 303 302 302 303 303 303 303 303
315 319 322 325 323 324 321 319 320 321 321 321 320 320 320 318 314 313 314 315 317 317 315 311 306 304 304 304 303 303 303 302 303 303 303 303 303 302 302 302 302 302 302 302 302 302 302 302 302
317 317 321 320 318 317 312 315 316 313 312 313 317 319 319 317 316 317 318 319 319 317 315 310 305 304 304 303 303 303 303 303 304 304 303 303 303 303 303 303 303 303 303 303 303 303 303 303 304
313 319 317 316 313 312 310 312 313 311 310 313 319 321 316 315 315 316 317 317 318 317 313 311 305 303 303 303 303 304 304 304 304 304 304 304 304 304 304 304 303 303 303 303 304 304 304 304 304
315 315 316 315 313 311 310 310 308 311 316 317 317 318 317 315 316 316 316 315 315 314 313 310 304 303 303 303 303 304 305 304 304 304 304 304 304 304 304 303 303 303 304 304 304 304 304 304 304
313 312 313 313 311 309 309 307 309 310 316 316 315 315 315 317 316 316 315 313 313 312 312 309 304 303 303 303 304 304 304 304 304 304 304 304 304 303 303 304 304 304 304 304 303 303 304 304 304
310 311 310 310 308 307 306 306 307 313 316 317 313 314 315 315 316 315 313 313 312 312 310 308 303 303 303 303 304 304 304 304 304 304 304 304 304 303 303 304 304 304 303 303 303 303 303 303 303
306 308 309 307 306 305 304 307 303 311 312 316 314 311 314 314 313 314 316 315 314 313 310 307 304 303 303 303 304 304 304 304 304 304 304 304 304 304 303 303 304 304 303 303 303 303 303 303 303
308 306 310 309 304 305 307 309 310 309 309 310 312 311 311 312 313 313 314 314 312 311 310 307 304 303 303 303 304 304 304 304 304 304 304 304 304 304 304 303 303 303 303 303 303 303 303 303 303
305 308 307 309 303 303 305 309 310 307 305 305 308 310 312 311 311 312 312 312 312 311 309 307 304 304 303 302 303 303 303 303 303 304 304 304 304 303 304 303 303 303 302 302 303 303 303 302 303
307 305 306 308 305 302 301 303 306 307 304 304 306 306 306 310 314 313 313 312 311 309 308 307 305 304 303 302 303 303 303 302 303 303 303 303 303 303 303 303 302 303 302 302 302 302 302 302 302
304 306 305 303 303 303 301 302 305 305 302 300 302 304 305 307 310 313 313 312 310 309 307 306 305 304 303 302 303 303 303 302 303 303 303 303 303 303 303 303 303 302 302 302 302 302 302 301 301
303 302 303 302 301 301 300 300 301 302 301 303 303 303 304 305 307 308 310 310 310 309 307 306 305 304 304 303 303 303 303 302 302 303 303 303 302 302 302 303 303 302 301 302 302 302 301 301 300
299 300 301 302 302 300 300 302 302 303 302 303 304 304 305 305 305 307 307 308 309 308 307 305 305 304 304 303 302 303 302 301 302 303 303 303 302 302 302 302 303 301 301 301 301 301 301 300 299
299 298 301 302 302 300 301 301 302 303 303 303 304 306 307 306 305 305 306 307 307 308 307 306 305 304 304 303 302 303 303 303 302 303 303 302 302 301 302 302 302 301 301 301 301 300 300 299 297
299 300 301 301 300 300 301 301 300 302 304 304 305 305 306 307 308 307 306 306 306 307 306 305 304 304 304 303 302 302 303 302 301 302 302 302 301 301 301 302 302 301 301 301 300 300 299 297 296
298 300 301 299 298 297 299 300 304 302 304 306 307 307 308 308 307 306 306 305 305 305 305 305 304 304 304 303 303 302 303 302 301 301 302 302 302 301 301 301 301 300 300 300 300 300 299 297 296
298 298 299 297 295 301 299 299 302 302 303 304 305 306 308 308 308 307 307 305 305 305 305 304 304 304 304 304 303 303 302 302 302 301 301 301 301 301 301 301 301 300 300 300 300 300 298 297 296
298 298 300 298 302 303 300 302 303 302 302 304 305 306 308 307 307 307 307 306 305 305 305 305 304 304 304 303 303 303 302 302 302 302 301 301 301 301 300 301 301 300 300 300 300 300 297 297 296
298 300 300 301 294 300 303 302 301 303 303 302 302 303 305 306 306 306 306 306 305 305 305 305 305 304 304 303 303 303 302 302 302 301 301 300 300 300 300 300 300 300 300 299 300 299 297 297 296
297 297 300 297 297 300 302 302 303 304 306 304 302 301 305 305 306 306 305 305 305 304 305 305 305 304 304 303 303 303 302 302 301 301 301 300 300 300 300 300 300 300 299 299 300 298 297 297 296
296 297 296 297 300 301 303 303 301 302 302 305 302 302 304 305 305 305 305 305 305 305 304 304 304 304 304 303 303 303 302 302 301 301 301 300 300 300 300 300 300 299 299 299 300 298 297 297 296
295 297 298 299 298 301 304 304 304 302 302 302 304 306 307 307 306 306 305 304 304 305 305 305 305 304 304 304 303 303 302 302 301 301 301 300 300 300 299 300 299 299 299 299 299 297 297 297 296
Wind_Speed
14 13 14 2 3 4 4 6 3 2 0 2 6 7 9 3 5 4 10 18 17 18 17 16 14 12 12 10 9 9 9 8 7 7 7 6 5 4 6 7 6 5 5 5 5 6 6 6 6
12 13 7 2 3 0 5 5 6 5 4 10 9 5 2 4 4 5 16 22 18 18 17 16 14 13 11 10 9 9 9 9 8 8 8 7 6 7 7 6 6 6 7 7 7 8 9 9 8
11 13 3 3 3 6 5 5 6 3 11 8 5 6 5 4 9 6 11 24 22 20 18 16 15 14 13 12 12 12 12 12 11 11 11 10 10 10 10 10 11 10 11 12 12 12 11 10 11
7 2 1 2 9 7 6 5 4 3 7 9 6 3 5 9 6 12 15 21 23 20 18 17 15 14 14 13 14 14 14 13 12 13 13 13 13 13 12 12 13 14 14 14 15 15 15 15 15
3 1 1 3 7 6 5 8 7 7 4 10 14 5 3 8 11 15 16 22 21 21 19 18 16 16 15 15 15 15 15 15 15 14 14 14 14 13 13 14 15 15 14 14 15 15 15 16 18
3 2 2 5 9 6 5 13 7 6 12 5 8 8 5 11 14 17 18 20 20 19 19 18 17 16 16 17 17 17 16 16 15 14 14 13 12 11 11 12 12 11 10 11 12 13 14 15 16
6 4 5 5 10 9 6 11 8 14 7 9 5 8 5 15 18 18 20 21 21 21 19 18 17 16 16 16 16 17 16 15 13 11 10 8 7 8 8 8 8 7 8 8 9 10 11 12 12
7 4 4 6 9 14 7 11 9 18 13 11 12 7 6 20 24 22 22 22 22 21 19 18 16 14 12 12 12 13 12 12 11 10 9 8 8 7 7 6 6 6 6 7 8 9 10 11 12
7 2 6 6 8 6 2 4 8 8 9 15 15 11 9 15 28 27 26 26 25 24 21 19 17 15 14 14 14 14 13 12 10 9 9 8 7 7 6 6 6 7 7 9 10 11 12 13 14
6 5 7 5 4 4 4 5 5 4 7 10 14 18 14 19 31 31 31 29 29 27 24 22 19 18 17 16 15 14 12 11 10 10 8 8 7 6 7 7 7 8 9 10 11 12 12 13 14
7 6 4 3 5 5 4 4 4 5 6 12 26 29 21 26 32 32 30 28 25 26 25 23 21 20 19 18 16 15 12 11 11 10 9 8 7 6 6 7 8 8 8 10 11 12 13 14 15
3 11 10 5 6 4 4 5 5 14 13 6 19 23 25 29 35 35 32 29 27 27 26 24 24 23 22 20 17 15 13 12 12 10 8 7 7 6 6 7 8 9 9 10 12 13 14 14 16
6 6 10 12 11 12 11 12 12 17 23 25 21 18 28 34 37 35 32 28 26 27 27 26 26 25 23 21 19 16 14 13 12 9 8 7 6 6 6 6 7 9 10 12 13 14 15 15 16
6 5 5 9 16 10 7 5 3 21 28 31 26 26 28 35 38 36 36 32 31 28 29 28 28 26 25 22 19 16 15 14 11 9 7 7 6 6 7 7 8 10 11 13 14 15 16 16 18
4 5 7 8 8 6 6 9 14 36 25 27 35 29 31 36 38 41 35 34 32 31 29 31 30 28 27 22 19 18 17 14 11 9 8 7 7 7 7 8 9 11 12 13 15 16 18 19 19
3 1 3 1 5 3 8 11 6 6 20 36 33 36 37 37 38 39 38 36 34 32 32 31 32 31 28 25 22 20 19 15 12 10 9 8 8 8 8 9 10 12 13 14 16 17 18 19 20
2 5 6 7 8 3 6 9 3 7 8 16 23 35 37 42 42 42 40 40 37 34 32 34 34 33 29 26 24 22 20 17 13 10 9 9 9 10 9 10 11 13 14 15 16 17 19 20 20
6 6 5 6 5 4 5 18 14 18 14 23 28 26 30 41 48 44 43 41 40 37 35 36 36 34 30 27 27 26 24 20 15 12 11 10 11 10 10 10 11 13 14 15 16 17 18 19 21
1 4 5 3 3 5 9 14 25 12 13 18 30 34 38 40 40 41 42 42 43 41 39 40 39 37 34 34 34 31 28 22 17 14 13 11 11 11 10 10 12 13 14 15 16 16 17 18 21
6 5 8 6 2 5 9 17 21 14 12 29 31 34 41 41 43 35 42 43 45 44 43 42 42 40 38 37 34 32 28 23 18 17 15 12 11 11 11 11 12 12 13 15 16 16 16 18 21
6 8 4 6 2 5 7 13 10 5 9 23 30 37 36 38 39 44 41 42 45 47 46 45 44 43 40 38 35 34 30 26 24 22 17 12 11 12 11 11 12 12 13 14 15 14 14 15 19
6 6 4 2 2 5 2 9 8 7 11 7 18 25 28 33 35 37 39 46 45 47 45 45 45 44 41 39 39 37 36 32 26 20 16 14 12 11 11 12 12 12 12 14 14 13 13 15 19
5 2 3 2 1 5 2 3 7 3 9 10 9 12 20 29 29 30 32 39 44 44 47 47 45 44 42 41 40 39 38 32 25 23 20 17 13 11 12 13 13 12 12 13 12 12 13 16 18
7 6 6 4 2 3 8 7 15 6 7 3 3 6 6 8 15 20 23 28 39 43 44 45 46 45 43 41 41 40 39 34 31 27 24 20 15 13 13 14 13 13 13 12 12 12 13 16 19
3 7 1 3 2 7 0 4 9 10 12 6 7 13 13 9 10 14 21 27 34 43 44 45 45 46 45 42 41 40 38 36 34 30 26 23 18 15 15 14 14 14 13 13 12 13 14 17 20
7 7 6 8 5 4 3 8 7 9 8 12 14 22 21 10 8 11 15 24 31 36 41 43 43 44 45 42 41 38 37 37 35 32 29 25 21 18 16 15 15 15 14 13 13 14 16 18 21
7 6 2 6 3 3 5 8 9 14 12 6 10 8 9 7 7 8 11 17 25 31 35 39 41 42 41 39 38 39 38 38 36 33 30 27 24 20 18 16 16 16 14 14 14 15 16 19 23
4 4 3 2 3 5 5 6 7 8 8 5 8 8 12 9 9 9 10 13 17 24 29 33 37 37 37 37 37 36 36 37 35 34 32 29 26 23 20 18 18 16 15 15 15 16 17 20 23
4 4 1 3 4 5 2 6 7 9 7 8 7 7 10 9 10 9 10 12 14 20 25 29 33 35 36 35 35 35 35 36 35 35 32 31 28 25 22 20 19 17 16 16 16 16 18 20 23
2 5 7 5 6 4 2 9 3 6 6 5 3 5 5 8 11 11 11 11 15 18 21 25 27 30 31 32 32 32 32 33 36 35 34 32 30 26 23 21 20 19 18 17 16 16 17 20 24
Wind_Direction
314 326 336 348 49 63 266 258 267 203 250 223 147 167 192 140 169 202 165 171 171 177 179 176 178 186 195 200 205 212 215 219 224 232 237 244 253 261 266 261 266 269 274 286 295 298 299 303 307
308 325 342 77 106 91 268 249 239 230 176 146 129 120 171 207 174 170 157 170 172 182 187 190 191 197 205 206 207 211 211 215 221 228 236 254 262 264 260 255 267 275 271 269 276 277 278 278 278
304 322 306 120 155 197 225 226 245 286 176 171 167 210 183 209 197 190 171 174 176 183 190 195 199 205 214 222 224 224 226 231 237 247 259 264 267 268 267 264 265 270 271 265 263 268 274 276 273
299 309 68 132 237 243 212 232 220 165 216 227 220 211 214 195 194 189 175 175 179 185 191 194 201 209 219 224 227 233 237 240 242 243 249 256 263 267 266 263 266 267 266 264 264 265 266 266 267
253 181 217 233 249 251 244 249 216 202 232 207 191 218 229 197 185 185 183 178 184 186 192 196 205 213 221 230 237 239 238 237 238 242 246 250 253 254 255 259 261 263 263 262 265 268 268 265 265
193 134 161 230 244 251 242 249 219 217 220 210 185 156 215 194 196 183 182 181 186 197 197 202 211 220 232 241 241 237 233 234 235 240 244 245 244 243 247 252 257 260 262 267 271 272 271 269 269
172 140 221 230 253 278 234 242 188 213 207 226 212 164 218 198 192 191 185 189 193 197 203 209 217 229 238 240 235 228 226 228 226 221 214 214 221 229 236 245 256 271 276 276 276 279 281 280 279
216 145 223 219 233 264 226 203 243 203 218 219 197 200 226 206 191 193 195 197 199 202 206 213 217 219 215 205 188 186 190 191 196 201 204 209 218 223 234 247 257 268 278 283 287 286 285 285 285
190 170 234 228 171 249 226 218 233 221 203 195 200 215 216 192 193 194 197 197 203 206 208 211 209 205 198 188 185 182 186 193 197 204 210 214 220 230 242 254 264 270 278 283 288 290 292 292 292
171 183 236 203 199 238 285 247 258 211 203 214 212 217 219 197 197 200 203 206 208 209 209 208 207 205 199 194 191 190 191 198 206 212 217 223 227 238 255 266 275 281 285 287 288 287 288 292 292
194 218 209 252 238 259 262 283 244 214 238 218 216 217 208 197 200 206 210 214 217 214 211 210 207 202 199 198 196 197 198 204 209 216 223 230 236 245 262 275 279 281 285 288 292 294 296 297 298
202 238 237 232 242 250 230 282 262 221 236 248 238 242 215 204 207 210 212 214 213 215 215 211 206 202 199 199 201 201 202 207 211 218 225 237 248 250 255 265 277 285 290 292 293 295 297 302 304
206 222 230 239 243 245 258 246 247 258 255 252 258 239 227 217 216 216 218 217 217 215 214 211 207 202 202 202 202 202 205 210 213 220 227 237 245 254 260 271 283 292 297 298 297 299 303 306 306
315 260 252 244 244 239 216 248 218 258 257 251 250 238 228 226 222 218 217 218 219 219 216 211 209 205 206 203 203 203 209 212 218 226 234 240 244 250 260 276 285 293 299 300 305 308 312 315 315
311 319 303 237 222 234 204 283 228 252 243 241 234 228 230 229 224 224 226 224 223 222 218 214 209 206 209 204 203 206 211 217 221 230 236 239 247 255 273 284 294 298 302 307 311 315 317 319 317
302 338 292 323 137 234 161 270 238 236 223 234 240 234 232 231 230 231 228 227 225 224 220 215 210 210 209 204 204 207 211 215 224 230 237 248 259 269 277 288 296 303 307 310 315 315 317 316 316
240 247 216 306 190 143 197 266 273 237 219 240 245 242 240 241 236 234 232 229 227 227 222 217 213 211 210 207 205 210 214 216 224 232 239 251 261 270 276 289 302 307 309 311 313 314 316 319 320
203 228 242 226 200 195 238 261 267 267 270 269 268 257 249 243 241 237 233 230 228 227 225 220 215 211 211 211 208 211 215 216 220 227 238 249 257 264 277 291 302 304 305 307 310 316 319 322 323
287 225 249 274 208 205 233 250 269 254 261 260 259 260 254 247 245 239 235 231 229 226 224 220 214 212 212 210 210 212 216 217 220 224 235 246 255 260 274 288 295 299 300 306 311 313 319 324 328
259 272 264 269 178 197 274 259 263 256 235 244 244 246 248 251 244 238 231 229 227 225 223 220 217 213 215 215 215 216 217 219 223 227 232 243 253 259 270 282 291 296 301 306 309 315 323 327 338
222 221 236 246 297 228 304 278 263 256 241 248 249 246 249 249 247 239 228 226 224 223 222 219 218 215 217 218 215 217 215 219 222 225 229 240 251 261 269 280 289 295 298 302 307 312 320 329 336
245 208 212 242 24 255 7 286 284 270 261 265 265 253 253 250 247 244 237 226 222 221 221 221 219 217 218 220 218 219 219 219 224 229 228 238 249 262 271 279 286 289 293 298 301 307 318 328 331
225 92 123 83 133 345 197 280 257 251 280 259 265 259 255 249 244 238 236 229 223 219 219 219 218 217 219 221 222 222 222 222 227 229 229 235 249 263 269 275 283 286 287 290 293 301 315 322 327
143 80 47 55 82 293 184 179 266 215 228 256 274 277 308 257 238 235 236 231 222 219 219 218 217 217 219 222 223 223 224 222 226 229 230 235 247 260 268 273 280 280 282 284 285 294 308 317 322
110 106 315 347 4 233 74 195 273 287 264 242 269 264 314 287 242 229 223 218 217 216 216 215 217 217 219 222 223 225 225 225 230 234 236 238 247 261 269 272 275 275 276 277 279 290 304 313 319
195 170 164 199 201 248 131 237 250 243 285 275 274 276 282 264 244 236 229 220 219 217 216 216 216 217 219 221 223 226 228 228 231 235 237 241 248 259 267 269 273 272 270 269 274 289 301 310 318
181 213 174 103 63 36 222 280 287 262 266 268 265 283 266 262 250 240 233 227 223 218 218 217 217 218 220 222 223 226 228 229 232 235 239 241 246 255 265 266 268 266 264 263 271 285 299 309 316
155 170 97 347 170 236 264 266 233 289 267 284 260 258 264 254 249 249 236 232 229 225 222 219 220 222 223 223 226 230 232 232 234 236 240 243 246 253 262 263 263 262 259 259 269 285 299 308 316
153 190 175 138 172 178 254 256 217 239 247 260 281 288 276 274 263 260 251 239 227 221 220 219 220 222 225 227 230 232 233 234 234 238 241 243 246 251 259 259 259 258 254 257 269 284 296 309 319
272 209 167 145 225 243 169 251 193 224 275 194 275 13 353 291 265 262 266 242 227 218 214 214 217 222 225 228 231 234 235 234 235 239 242 243 246 250 255 255 254 253 251 255 267 282 297 312 321